Weather History for Trenton, NJ

Change the Weather History Date:

Monday, September 16, 2013

  Actual Average Record
Temperature  
Mean Temperature 63 °F 66 °F  
Max Temperature 72 °F 76 °F 93 °F (1991)
Min Temperature 54 °F 57 °F 40 °F (1984)
Degree Days  
Heating Degree Days 2 2  
Month to date heating degree days 23 10  
Since 1 July heating degree days 23 13  
Cooling Degree Days 0 3  
Month to date cooling degree days 90 75  
Year to date cooling degree days 1040 931  
Growing Degree Days 14 (Base 50)    
Moisture  
Dew Point 53 °F    
Average Humidity 72    
Maximum Humidity 90    
Minimum Humidity 53    
Precipitation  
Precipitation 0.04 in 0.17 in 7.25 in (1999)
Month to date precipitation 0.56 2.06  
Year to date precipitation 32.91 33.04  
Sea Level Pressure  
Sea Level Pressure 30.09 in    
Wind  
Wind Speed 6 mph (NNW)    
Max Wind Speed 15 mph    
Max Gust Speed 21 mph    
Visibility 10 miles    
Events Rain    
T = Trace of Precipitation, MM = Missing Value Source: NWS Daily Summary

Daily Weather History Graph

Daily Weather History Graph

Search for Another Location

Airport:

Trip Planner

Search our weather history database for the weather conditions in past years. The results will help you decide how hot, cold, wet, or windy it might be!

Date:

Astronomy

Sep. 16, 2013 Rise Set
Actual Time 6:41 AM EDT 7:06 PM EDT
Civil Twilight 6:14 AM EDT 7:33 PM EDT
Nautical Twilight 5:41 AM EDT 8:05 PM EDT
Astronomical Twilight 5:09 AM EDT 8:38 PM EDT
Moon 5:13 PM EDT (9/16) 3:24 AM EDT (9/16)
Length of Visible Light 13h 19m
Length of Day
12h 24m
Waxing Gibbous, 90% of the Moon is Illuminated
Sep 16
Waxing Gibbous
Sep 19
Full
Sep 26
Last Quarter
Oct 4
New
Oct 11
First Quarter

Hourly Weather History & Observations

Time (EDT) Temp. Dew Point Humidity Pressure Visibility Wind Dir Wind Speed Gust Speed Precip Events Conditions
12:53 AM 59.0 °F 53.1 °F 81% 30.07 in 10.0 mi Calm Calm - N/A   Clear
1:53 AM 57.9 °F 53.1 °F 84% 30.06 in 10.0 mi South 3.5 mph - N/A   Clear
2:53 AM 57.9 °F 54.0 °F 87% 30.05 in 10.0 mi SSW 3.5 mph - N/A   Mostly Cloudy
3:53 AM 57.9 °F 54.0 °F 87% 30.04 in 10.0 mi South 3.5 mph - N/A   Partly Cloudy
4:53 AM 59.0 °F 54.0 °F 83% 30.03 in 10.0 mi Calm Calm - N/A   Mostly Cloudy
5:53 AM 57.0 °F 54.0 °F 89% 30.04 in 10.0 mi NW 4.6 mph - N/A   Partly Cloudy
6:53 AM 59.0 °F 55.0 °F 87% 30.04 in 10.0 mi Calm Calm - N/A   Partly Cloudy
7:53 AM 59.0 °F 55.0 °F 87% 30.05 in 10.0 mi NNW 4.6 mph - N/A   Mostly Cloudy
8:53 AM 60.1 °F 55.9 °F 86% 30.07 in 10.0 mi NW 8.1 mph - 0.00 in Rain Light Rain
9:53 AM 60.1 °F 57.0 °F 90% 30.09 in 5.0 mi NNW 5.8 mph - 0.03 in Rain Light Rain
10:53 AM 61.0 °F 57.0 °F 87% 30.08 in 8.0 mi NNW 5.8 mph - 0.01 in   Overcast
11:53 AM 63.0 °F 57.9 °F 84% 30.08 in 10.0 mi North 4.6 mph - 0.00 in   Overcast
12:53 PM 63.0 °F 57.0 °F 81% 30.08 in 10.0 mi North 4.6 mph - N/A   Overcast
1:53 PM 66.0 °F 54.0 °F 65% 30.07 in 10.0 mi Calm Calm - 0.00 in   Overcast
2:53 PM 70.0 °F 52.0 °F 53% 30.06 in 10.0 mi North 5.8 mph - N/A   Scattered Clouds
3:53 PM 69.1 °F 53.1 °F 57% 30.05 in 10.0 mi NW 8.1 mph - N/A   Mostly Cloudy
4:53 PM 69.1 °F 51.1 °F 53% 30.06 in 10.0 mi NNW 6.9 mph - N/A   Overcast
5:53 PM 68.0 °F 51.1 °F 55% 30.08 in 10.0 mi NNW 5.8 mph - N/A   Overcast
6:53 PM 64.9 °F 52.0 °F 63% 30.10 in 10.0 mi NNW 6.9 mph - N/A   Partly Cloudy
7:53 PM 62.1 °F 51.1 °F 67% 30.12 in 10.0 mi North 5.8 mph - N/A   Mostly Cloudy
8:53 PM 60.1 °F 51.1 °F 72% 30.16 in 10.0 mi North 5.8 mph - N/A   Clear
9:53 PM 59.0 °F 50.0 °F 72% 30.19 in 10.0 mi NNW 6.9 mph - N/A   Clear
10:53 PM 57.9 °F 48.0 °F 70% 30.20 in 10.0 mi North 12.7 mph 20.7 mph N/A   Clear
11:53 PM 55.9 °F 46.9 °F 72% 30.23 in 10.0 mi North 9.2 mph - N/A   Clear